This is the latest recevied weather packets stored in our database for station/object KH6DH-13. If no packets are shown the sender has not sent any weather packets the latest 10 day(s).
| Time | Temp. | Humidity | Pressure | Rain* | Wind** | Luminosity | Snow |
|---|---|---|---|---|---|---|---|
| 1778123146 | 25.56° C | - | - | 0 mm | 1.34 m/s, 72° | - | - |
| 1778122545 | 26.11° C | - | - | 0 mm | 1.79 m/s, 77° | - | - |
| 1778121944 | 26.11° C | - | - | 0 mm | 1.34 m/s, 77° | - | - |
| 1778121343 | 26.11° C | - | - | 0 mm | 1.79 m/s, 11° | - | - |
| 1778120742 | 26.67° C | - | - | 0 mm | 1.34 m/s, 108° | - | - |
| 1778120141 | 26.11° C | - | - | 0 mm | 1.34 m/s, 96° | - | - |
| 1778119540 | 26.67° C | - | - | 0 mm | 1.34 m/s, 79° | - | - |
| 1778118939 | 27.22° C | - | - | 0 mm | 0.89 m/s, 34° | - | - |
| 1778118338 | 27.22° C | - | - | 0 mm | 0.89 m/s, 68° | - | - |
| 1778117737 | 27.22° C | - | - | 0 mm | 1.34 m/s, 49° | - | - |
| 1778117136 | 27.78° C | - | - | 0 mm | 0.89 m/s, 101° | - | - |
| 1778116535 | 27.78° C | - | - | 0 mm | 0.89 m/s, 13° | - | - |
| 1778115934 | 27.78° C | - | - | 0 mm | 0.89 m/s, 51° | - | - |
| 1778115333 | 27.78° C | - | - | 0 mm | 1.34 m/s, 125° | - | - |
| 1778114732 | 27.78° C | - | - | 0 mm | 0.89 m/s, 72° | - | - |
| 1778114131 | 27.78° C | - | - | 0 mm | 1.34 m/s, 11° | - | - |
| 1778113530 | 27.22° C | - | - | 0 mm | 1.79 m/s, 79° | - | - |
| 1778112929 | 27.22° C | - | - | 0 mm | 0.89 m/s, 149° | - | - |
| 1778112328 | 27.78° C | - | - | 0 mm | 0.89 m/s, 359° | - | - |
| 1778111727 | 27.78° C | - | - | 0 mm | 0.89 m/s, 28° | - | - |
| 1778111126 | 27.78° C | - | - | 0 mm | 2.24 m/s, 72° | - | - |
| 1778110525 | 27.78° C | - | - | 0 mm | 1.34 m/s, 132° | - | - |
| 1778109921 | 28.33° C | - | - | 0 mm | 1.34 m/s, 65° | - | - |
| 1778109320 | 28.33° C | - | - | 0 mm | 1.34 m/s, 156° | - | - |
| 1778108719 | 28.89° C | - | - | 0 mm | 1.79 m/s, 7° | - | - |
* Rain latest hour (hover to see other rain measurements)
** Current wind speed in m/s (hover to see current wind gust speed)